Wind_Speed
12 12 13 14 15 16 16 16 16 17 17 18 19 19 19 19 19 20 21 22 22 23 23 23 23 24 24 23 23 23 23 23 23 23 23 23 23 23 23 23 23 23 23 24 24 24 24 23 23 23 22 22
12 13 13 14 15 16 17 17 17 18 18 19 19 20 20 20 20 21 21 22 23 23 24 24 24 24 24 24 24 23 23 24 24 24 24 24 24 24 23 23 22 23 23 23 24 24 24 24 24 23 23 23
13 13 14 15 16 17 17 17 18 18 18 19 19 20 20 20 20 20 21 22 22 23 24 24 24 25 25 25 25 25 25 25 25 25 25 25 25 24 24 24 23 23 24 24 24 24 25 25 25 24 24 25
14 14 14 14 15 16 17 17 17 18 18 18 19 20 20 20 20 20 21 21 22 22 23 24 24 24 25 25 25 26 26 26 26 26 26 26 25 25 25 25 25 25 25 25 25 25 25 25 25 26 27 27
13 14 13 14 15 16 17 17 18 18 19 19 20 21 21 21 21 21 22 22 23 23 24 24 24 24 25 25 25 25 25 26 26 27 27 27 27 26 26 26 26 26 26 26 27 27 27 27 27 27 28 28
13 13 14 14 15 16 16 17 17 18 19 19 20 21 22 22 23 23 24 25 25 25 25 25 25 25 25 25 25 26 26 26 26 27 27 28 28 27 27 27 27 28 27 28 28 28 28 29 29 29 29 29
13 13 14 14 14 15 15 16 17 17 17 18 19 20 21 22 23 23 24 25 25 25 25 25 26 25 25 25 26 26 26 26 27 27 27 28 28 28 29 29 29 29 29 29 29 29 29 29 30 31 30 30
12 12 13 13 14 14 14 15 16 16 17 17 18 18 19 21 21 22 23 23 24 24 25 25 25 26 26 26 26 26 26 27 27 27 27 28 28 29 29 30 30 30 30 30 30 30 30 29 29 30 31 31
11 12 12 13 14 13 14 14 15 16 16 17 17 17 18 19 19 21 21 22 23 24 24 25 26 26 27 27 27 27 28 28 28 29 29 29 29 30 30 30 30 31 31 31 31 31 30 30 30 29 30 30
11 11 12 13 13 13 14 14 14 15 16 16 16 17 17 17 18 19 20 21 22 23 24 25 26 27 27 27 28 28 29 29 29 30 30 31 31 31 30 30 30 30 30 31 31 31 31 31 31 30 30 29
10 11 12 12 12 12 13 13 13 14 15 15 15 15 16 16 17 18 20 21 22 23 23 24 25 26 27 27 28 29 29 30 30 31 31 31 31 31 31 31 30 30 30 30 30 31 31 31 31 31 30 30
9 10 11 11 11 12 13 12 13 14 14 14 14 15 15 16 17 18 19 20 21 22 23 24 24 25 26 27 28 29 29 30 30 31 31 31 31 31 31 31 31 31 31 31 31 31 31 31 31 31 30 30
8 9 10 10 11 12 12 12 13 13 13 14 14 14 15 16 16 17 18 19 20 21 22 23 23 24 25 26 27 28 28 30 30 30 31 31 31 32 32 32 32 32 31 31 32 32 32 31 31 31 30 30
6 7 8 9 10 10 11 11 11 12 12 13 14 14 15 16 16 17 18 19 19 20 22 22 23 23 24 25 26 27 28 29 30 30 30 31 31 32 32 33 33 33 32 32 32 33 32 32 31 30 30 29
4 5 6 8 8 9 9 10 10 11 11 12 13 13 14 14 15 16 17 18 18 20 21 22 22 23 24 25 26 27 27 27 28 29 29 30 31 32 32 32 33 33 33 32 32 33 32 32 31 30 29 27
3 3 4 5 6 7 7 8 8 9 10 10 11 12 12 13 14 15 16 17 18 19 20 21 22 22 23 24 25 26 26 26 27 27 27 28 28 30 31 31 32 32 33 33 33 33 32 32 31 30 28 26
3 2 1 2 3 4 5 5 6 6 7 9 10 11 12 13 14 14 15 16 17 18 19 20 21 21 22 22 24 24 25 25 26 27 28 28 28 29 30 31 33 33 33 33 33 33 32 32 31 31 28 26
5 4 3 2 1 1 2 2 3 4 5 6 8 9 11 12 13 13 14 15 16 17 18 19 20 20 20 21 22 22 23 24 25 27 28 29 30 30 31 32 34 35 35 34 34 34 33 32 31 30 27 25
8 7 6 5 4 3 2 1 0 1 2 4 5 7 8 9 11 12 13 14 15 16 17 18 18 18 19 19 20 21 22 23 24 25 26 28 29 30 31 32 34 34 35 36 36 35 33 31 30 29 26 23
11 10 9 8 7 6 6 5 4 3 2 2 3 4 6 7 9 10 11 12 13 15 15 16 17 17 17 17 18 19 20 21 23 24 25 25 27 29 30 31 33 33 34 36 36 35 32 31 29 27 24 20
13 12 11 10 9 9 9 9 8 6 6 5 4 4 4 6 7 8 9 10 11 12 13 14 15 15 15 16 17 18 18 20 20 21 23 23 24 26 27 30 31 32 34 35 35 33 31 31 28 25 22 18
16 14 13 13 12 12 13 13 11 10 10 8 7 6 5 5 6 7 7 8 9 10 12 13 13 14 14 15 15 16 17 17 18 19 20 21 22 23 25 28 28 31 32 34 34 30 30 30 26 24 20 14
19 17 17 16 16 16 16 16 15 14 13 11 10 9 8 7 7 6 7 7 8 9 10 11 12 13 13 14 14 15 16 16 16 17 18 19 20 21 22 24 26 29 31 34 30 26 29 27 24 23 15 11
22 21 21 20 19 20 20 19 17 16 15 14 14 12 11 10 9 8 7 7 8 8 9 10 11 12 12 13 13 14 14 15 15 16 16 17 18 20 21 22 24 26 31 33 27 26 26 22 23 19 9 9
25 25 24 23 23 23 21 20 19 18 17 17 17 15 14 14 12 11 10 9 9 9 9 9 10 11 11 12 12 13 13 14 14 14 15 15 16 18 19 21 21 24 29 27 26 28 23 19 20 13 7 8
28 27 26 25 25 23 22 20 20 20 19 18 18 18 18 17 15 14 13 12 11 11 10 10 10 10 10 11 11 11 11 12 13 13 13 13 15 15 17 18 18 21 22 18 20 21 16 16 15 8 5 5
31 29 28 27 26 25 23 22 22 22 22 21 21 21 22 21 19 18 16 14 14 13 12 11 11 11 10 10 10 10 10 11 11 12 12 12 14 14 15 16 15 17 17 16 19 14 7 8 9 6 1 6
33 31 29 29 28 27 26 26 25 25 26 26 25 26 25 24 22 20 18 17 16 15 15 14 13 12 12 11 11 10 10 10 10 10 11 11 11 12 14 14 12 13 14 14 14 8 3 3 5 4 2 17
34 32 31 30 28 28 28 28 29 29 31 32 30 30 27 24 23 21 20 19 18 18 17 17 16 15 14 12 12 12 11 11 10 9 9 9 10 10 12 12 11 12 13 12 10 5 4 3 2 3 7 18
35 34 33 32 30 29 28 28 31 33 35 35 32 29 25 23 22 21 21 21 20 21 20 20 19 17 16 15 14 13 12 12 11 10 9 9 10 9 10 11 11 13 13 12 11 10 8 7 8 8 9 9
36 35 35 35 34 33 31 31 34 36 36 34 31 29 27 26 24 23 22 23 23 23 23 22 22 21 19 18 16 16 15 14 13 12 11 10 10 10 9 10 12 14 14 11 12 12 11 13 15 15 12 5
Wind_Direction
74 72 71 70 68 68 66 65 64 63 62 62 61 60 59 58 57 57 56 55 54 54 53 53 52 50 46 44 42 41 40 39 36 35 33 31 29 28 27 25 23 22 21 19 18 16 13 9 6 4 2 0
77 74 73 72 69 69 67 66 65 63 63 61 60 58 57 55 55 55 54 53 52 51 50 50 50 49 46 44 43 41 41 39 37 35 33 31 29 27 27 26 24 22 21 18 16 15 14 12 9 7 5 3
81 77 74 72 70 68 66 65 64 63 61 60 60 58 57 55 54 54 53 52 50 49 48 46 46 46 44 41 40 39 39 39 36 35 33 32 29 26 26 25 25 25 23 20 17 14 12 11 9 8 7 6
82 77 73 72 69 67 66 64 63 62 61 60 59 57 57 55 54 54 53 51 49 48 47 45 43 43 42 39 37 35 34 34 33 31 31 31 29 27 25 23 24 24 23 21 18 15 12 10 8 8 8 7
81 78 74 72 70 69 66 64 63 61 59 57 56 54 52 51 50 49 49 48 47 45 45 43 42 40 39 37 36 34 32 32 30 28 27 26 25 24 24 23 22 22 22 21 18 16 13 11 10 9 8 6
80 79 76 73 71 69 66 64 62 59 58 55 53 52 48 47 46 45 45 44 43 42 41 40 38 37 36 35 34 32 31 30 29 27 25 23 21 20 20 20 20 20 19 19 17 15 13 11 11 10 8 6
81 81 78 75 73 70 67 64 61 59 57 56 54 51 48 47 45 44 43 42 40 39 37 36 35 34 32 32 30 29 28 27 27 25 24 22 19 17 17 16 16 16 16 16 15 14 13 11 9 7 6 5
86 85 82 79 75 72 70 65 62 60 57 57 54 52 50 46 45 43 42 41 39 36 34 33 31 30 29 27 27 25 24 24 23 22 21 20 18 16 16 15 14 13 12 13 13 13 12 11 9 7 4 2
91 88 87 83 78 75 72 67 63 60 57 56 53 52 49 46 45 42 41 39 36 34 32 30 28 27 25 24 24 22 21 20 19 18 18 17 16 16 15 14 14 13 11 9 10 10 10 9 8 7 4 1
95 93 89 84 80 76 72 69 64 60 57 54 52 50 48 45 43 41 40 37 35 33 30 29 27 25 24 22 21 21 19 19 17 16 15 14 14 14 13 12 13 13 11 9 7 7 7 7 6 5 4 2
96 95 90 85 82 78 75 70 65 61 56 53 51 49 47 44 42 41 39 37 35 33 30 29 27 25 23 22 21 19 18 18 16 15 14 13 12 11 10 9 9 9 9 8 7 6 5 5 4 4 2 1
94 94 93 90 85 81 77 71 66 61 56 53 51 49 47 43 42 40 38 38 36 33 31 29 28 26 23 22 21 18 17 16 15 14 12 11 10 9 8 7 6 6 6 5 5 5 4 4 3 3 1 360
93 92 93 91 85 81 76 71 66 61 56 51 49 48 46 43 41 39 38 36 34 32 30 29 26 25 23 22 20 18 17 15 14 13 11 10 9 8 7 6 5 4 3 3 3 3 3 3 2 1 360 357
94 89 88 86 83 77 73 70 65 60 56 50 47 45 42 41 38 36 36 33 32 29 27 26 24 23 22 20 19 17 16 15 13 12 10 9 8 7 6 5 3 2 1 1 0 0 0 1 1 0 358 356
108 91 83 83 81 76 72 68 64 60 55 49 46 43 41 39 36 35 32 30 29 26 25 23 21 20 18 18 17 15 14 13 12 11 10 9 8 6 5 4 3 1 359 358 358 358 357 358 359 359 357 355
139 109 87 81 82 81 75 69 64 60 54 50 46 42 41 38 35 33 29 28 26 23 22 20 19 17 15 15 14 12 12 10 9 9 8 8 7 5 4 3 1 360 358 357 357 356 354 354 355 356 356 353
189 178 134 91 83 87 84 78 71 64 58 51 47 42 40 37 33 31 27 25 23 21 20 18 17 14 13 12 10 10 8 7 6 6 5 5 4 3 3 1 0 358 357 357 356 354 353 352 351 353 354 351
209 207 207 215 221 99 91 89 79 71 63 51 47 42 38 36 32 29 27 23 21 19 17 16 14 11 10 7 6 6 5 5 4 3 4 3 2 2 2 1 0 358 356 355 354 353 352 350 349 350 352 349
217 217 220 228 248 260 269 264 274 34 48 41 39 37 35 33 31 28 25 23 20 17 15 14 11 8 6 3 1 1 2 2 0 1 3 2 360 360 0 359 358 357 355 354 353 352 351 350 348 348 350 348
223 225 228 234 246 257 268 271 274 293 310 343 3 17 24 23 24 24 22 21 18 16 14 12 10 6 2 360 357 357 358 358 357 358 358 360 359 356 357 356 355 354 352 351 351 351 350 349 348 348 350 347
229 231 236 241 249 256 265 270 272 278 283 294 307 326 351 1 8 11 12 13 13 13 11 10 9 5 360 357 355 354 354 354 354 353 353 356 356 354 353 352 352 351 349 348 347 348 348 349 349 349 348 345
236 239 244 248 251 257 263 267 270 271 273 281 286 296 313 327 340 349 355 358 0 5 6 6 6 3 359 354 353 352 350 350 349 348 349 350 352 353 350 350 350 348 346 345 344 345 345 349 351 349 346 343
238 241 245 249 252 256 260 263 266 265 267 273 276 282 290 295 306 318 327 334 340 348 355 359 0 0 357 352 351 348 347 346 344 344 345 345 346 348 348 349 349 346 343 342 342 342 342 347 350 349 348 343
237 239 242 247 251 254 258 261 264 265 265 267 270 274 278 278 282 290 297 304 312 325 338 347 352 354 353 350 347 345 344 342 340 340 341 342 342 341 344 347 348 347 343 341 341 340 341 345 346 350 356 334
235 236 238 242 246 251 257 261 263 264 263 264 268 269 269 269 270 271 275 282 289 301 317 330 339 343 345 345 342 341 340 338 337 336 336 337 338 338 340 343 348 347 344 346 346 340 339 343 344 354 346 313
237 238 239 242 247 253 259 262 264 266 267 267 268 267 264 264 264 264 266 271 277 287 299 311 321 327 333 335 334 334 335 335 333 331 332 332 333 336 336 338 344 346 348 354 349 337 331 338 345 352 321 277
240 242 243 245 250 255 260 263 265 267 269 266 264 262 261 261 262 262 264 266 271 278 287 296 303 309 316 320 321 324 327 329 329 327 328 328 329 331 330 333 337 342 348 348 344 341 326 336 345 338 251 296
243 245 246 247 250 253 257 260 262 264 264 262 260 260 260 261 262 262 263 264 267 272 278 284 288 293 299 304 307 310 314 319 322 322 322 322 322 324 324 327 328 330 337 338 345 356 314 325 343 319 318 325
243 242 243 244 245 247 250 253 255 257 259 257 255 257 260 263 263 263 262 261 263 268 271 275 278 281 285 291 294 297 302 307 310 311 313 312 311 314 315 316 315 312 318 324 330 331 299 311 335 287 325 331
241 240 240 240 238 239 241 245 248 250 254 256 256 260 264 266 265 263 260 258 259 263 265 268 270 272 276 280 283 287 290 293 296 299 301 300 299 303 305 303 298 296 301 303 298 293 277 260 258 276 319 337
240 239 239 239 238 239 238 241 247 252 255 258 260 264 267 268 267 263 259 258 258 260 262 265 266 268 270 273 276 279 280 284 287 289 289 288 288 291 293 290 286 288 292 287 281 280 269 259 257 268 283 280
Height
845 845 845 844 843 842 842 841 841 841 840 840 839 839 838 837 836 836 835 835 834 834 833 833 832 832 831 831 830 829 829 828 827 826 826 825 824 823 822 821 820 819 818 817 816 815 814 813 812 811 810 809
844 844 844 844 843 842 842 842 842 842 841 841 840 839 839 838 837 836 836 835 835 834 834 833 832 832 832 831 831 830 829 828 828 827 826 825 824 823 822 821 820 819 818 817 816 815 814 813 812 811 810 809
844 844 844 843 843 843 843 842 843 842 842 842 841 840 840 839 838 837 837 836 836 835 834 834 833 832 832 831 831 830 830 829 828 827 826 826 824 823 822 821 821 819 818 817 816 815 814 813 812 811 810 809
844 844 843 843 843 843 843 843 843 843 843 843 842 841 841 840 839 838 837 837 836 835 835 834 833 833 832 832 831 830 830 829 828 827 826 826 825 824 823 822 821 819 818 817 816 815 814 813 812 810 809 809
843 843 843 843 843 844 844 844 844 844 843 843 842 842 841 840 839 838 837 837 836 835 835 834 834 833 833 832 831 831 830 829 828 827 826 826 825 824 823 822 821 819 818 817 816 815 814 813 811 810 809 808
843 843 843 843 844 844 844 844 844 844 844 843 843 842 841 840 839 838 837 837 836 835 835 834 834 833 833 832 832 831 830 829 828 827 826 825 825 824 823 821 820 819 818 817 816 815 813 812 811 810 810 809
843 843 843 844 844 844 845 845 845 844 844 844 843 842 842 841 840 839 838 837 836 836 835 835 834 834 833 832 832 831 830 829 828 828 827 826 825 823 822 821 819 819 818 817 816 814 813 812 811 810 809 808
843 843 844 844 844 845 845 845 845 845 844 844 843 843 842 841 840 839 839 838 837 836 835 835 834 834 833 832 832 831 830 829 828 827 826 825 824 823 822 821 820 819 818 817 816 815 813 813 812 811 809 808
843 844 844 844 845 845 845 845 845 845 844 844 844 843 842 842 841 840 839 838 837 836 836 835 834 833 833 832 831 830 829 828 827 826 826 825 824 823 822 821 820 819 818 817 816 815 814 813 812 811 810 808
843 843 844 844 844 844 845 844 845 844 844 844 843 843 843 842 841 840 839 838 837 836 836 835 834 834 833 832 831 830 829 828 827 826 825 825 824 823 823 822 821 820 819 818 816 815 814 813 812 811 810 809
843 843 843 844 844 844 844 844 844 844 844 844 843 843 842 842 841 840 839 838 837 837 836 835 835 834 834 833 832 831 830 829 828 827 826 825 824 824 823 822 821 821 820 818 817 816 815 813 812 811 810 809
843 843 843 843 844 844 844 844 844 843 844 843 843 843 842 841 840 840 839 838 838 837 837 836 836 835 834 833 832 831 830 829 828 827 826 825 824 823 822 822 821 820 820 819 818 816 815 814 812 811 810 809
842 842 843 843 843 843 843 843 843 843 843 843 843 842 842 841 840 840 839 839 838 838 837 837 836 835 834 833 833 832 831 830 828 827 826 825 824 823 822 821 820 820 819 818 818 817 816 814 813 811 810 809
842 842 842 842 842 842 842 843 843 843 843 843 842 842 841 841 840 840 839 839 838 838 837 837 836 835 834 834 833 832 831 830 829 828 827 825 824 823 822 821 820 819 819 818 817 816 815 814 813 812 810 809
841 841 841 841 841 841 842 842 842 842 842 842 842 842 841 840 840 840 839 839 838 837 837 836 835 835 834 834 833 832 831 831 830 829 827 826 825 823 822 821 820 819 818 818 817 816 815 814 813 812 810 809
840 840 841 841 841 841 841 841 842 842 842 842 841 841 841 840 839 839 838 838 837 836 836 835 835 834 833 833 832 832 832 831 830 829 828 827 826 824 823 822 821 820 818 817 816 815 814 813 812 811 810 808
839 839 840 840 841 841 841 841 841 841 841 841 841 840 840 839 839 838 837 837 836 835 835 834 834 833 833 832 832 832 832 831 830 829 828 827 826 824 823 821 820 819 818 817 816 815 814 813 811 810 809 808
838 838 839 839 840 840 840 840 841 841 841 840 840 839 839 838 838 837 836 836 835 835 834 833 833 832 832 832 832 832 831 830 829 828 827 826 825 824 823 821 820 819 818 817 816 815 813 812 811 810 808 807
837 837 838 838 839 839 839 839 840 840 839 839 839 838 838 837 837 836 836 835 834 834 833 833 832 832 832 832 832 831 830 830 829 828 827 826 824 823 823 822 821 819 818 816 815 814 813 812 810 809 808 806
835 836 836 837 837 838 838 838 838 838 838 838 837 837 837 836 836 835 834 834 833 833 833 832 832 831 831 831 831 830 829 829 828 827 826 826 825 823 823 822 821 819 818 816 815 814 813 811 810 808 807 806
834 834 835 835 836 836 836 837 836 837 836 836 836 836 835 835 834 834 834 833 833 832 832 831 831 830 830 829 829 829 828 828 827 826 826 826 826 824 823 822 820 819 817 816 814 813 812 811 809 808 807 805
832 832 833 833 834 834 834 835 835 835 835 835 835 834 834 834 833 833 833 833 832 832 831 831 830 829 828 828 827 827 827 827 826 826 826 825 825 825 824 822 820 818 817 815 813 812 811 810 808 807 806 804
829 830 831 831 831 832 832 832 833 833 833 833 833 833 833 833 833 832 832 832 832 831 831 830 829 828 827 826 826 826 825 825 825 825 825 824 824 824 823 822 821 818 816 814 812 811 809 808 807 806 805 804
826 827 828 828 829 829 829 830 831 831 831 832 832 832 832 831 832 832 831 831 831 831 830 829 828 827 827 826 825 825 824 824 824 824 823 823 822 822 822 821 820 818 815 812 809 808 807 806 805 804 804 803
823 824 824 825 826 825 827 828 828 829 829 830 830 830 830 830 830 830 830 830 830 829 829 828 827 826 826 825 825 824 824 823 823 822 822 821 821 820 819 819 818 817 815 811 806 803 802 803 804 803 802 801
819 820 821 822 822 823 824 825 826 826 827 828 828 828 828 828 828 828 828 828 828 827 827 826 826 825 825 824 824 823 823 822 822 821 821 820 819 819 818 818 817 817 815 813 811 806 801 799 800 800 801 800
815 816 818 819 820 821 822 823 824 824 824 825 825 825 826 826 826 826 826 826 825 825 825 825 824 824 824 823 823 822 821 821 820 820 819 819 818 817 817 817 817 816 816 815 815 813 808 803 801 799 797 798
812 814 816 817 818 819 820 820 821 821 821 821 822 822 822 823 823 823 823 823 823 823 823 823 823 823 823 822 821 821 820 819 819 818 818 817 817 816 816 816 816 816 817 816 815 815 814 811 808 802 797 795
810 812 813 815 816 817 817 817 818 818 816 816 818 818 818 819 819 820 820 820 820 820 821 821 821 821 821 821 820 819 818 817 817 816 816 815 815 815 814 814 815 814 815 816 816 817 817 815 812 806 802 798
807 808 809 810 811 812 813 813 813 812 811 811 813 814 815 816 817 817 817 817 818 817 818 818 818 819 818 818 818 817 816 815 815 814 814 813 813 813 813 812 813 813 814 815 815 816 816 816 813 809 807 806
803 804 805 806 806 807 808 808 807 806 807 808 810 810 811 813 813 814 814 814 815 814 815 815 815 815 815 815 815 814 813 813 812 812 811 811 810 810 811 810 810 810 811 812 812 813 814 813 813 811 809 809